SCP
0 -0 0 0 -0 0 0 0 0 0 0 0 0 0 0 0 0 0 0 0 0 1 2 1 1 1 1 1 1 0 0 0
-0 0 0 0 0 0 0 0 0 0 0 0 0 0 0 0 0 0 0 0 0 0 0 0 1 1 1 1 1 0 0 0
0 0 0 0 0 0 0 0 0 0 0 0 0 0 0 0 0 0 0 0 0 0 0 0 0 1 1 0 0 0 0 0
0 0 0 0 0 0 -0 0 0 0 0 0 0 0 0 0 0 0 0 0 0 0 0 0 0 0 0 0 0 0 0 0
0 0 0 0 0 0 0 0 0 0 0 0 0 0 0 0 0 0 0 0 0 0 0 0 0 0 0 0 0 0 0 0
-0 0 0 0 0 -0 0 0 0 0 0 0 0 0 0 0 0 0 0 0 0 0 0 0 0 0 0 0 0 0 0 0
0 0 0 0 0 0 0 0 0 0 0 0 0 0 0 0 0 0 0 0 0 0 0 0 0 0 0 0 0 0 0 0
0 0 0 0 0 0 0 0 0 0 0 0 0 0 0 0 0 0 0 0 0 0 0 0 0 0 0 0 0 0 0 0
0 -0 0 0 -0 0 0 0 0 0 0 0 0 0 0 0 0 0 0 0 0 0 0 0 0 0 0 0 0 0 0 0
0 -0 0 -0 0 0 0 0 0 0 0 0 0 0 0 0 0 0 0 0 0 0 0 0 0 0 0 0 0 0 0 0
0 0 0 0 0 0 0 0 0 0 0 0 0 0 0 0 0 0 0 0 0 0 0 0 0 0 0 0 0 0 0 0
0 0 0 0 -0 0 0 0 0 0 0 0 0 0 0 0 0 0 0 0 0 0 0 0 0 0 0 0 0 0 0 0
0 0 0 0 0 0 0 0 0 0 0 0 0 0 0 0 0 0 0 0 0 0 0 0 0 0 0 0 0 0 0 0
0 0 0 0 0 0 0 0 0 0 0 0 0 0 0 0 0 0 0 0 0 0 0 0 0 0 0 0 0 0 0 0
0 0 0 0 0 -0 0 0 0 0 0 0 0 0 0 0 0 0 0 0 0 0 0 0 0 0 0 0 0 0 0 0
-0 0 0 0 0 0 0 0 0 0 0 0 0 0 0 0 0 0 0 0 0 0 0 0 0 0 0 0 0 0 0 0
0 0 0 0 0 -0 0 0 0 0 0 0 0 0 0 0 0 0 0 0 0 0 0 0 0 0 0 0 0 0 0 0
0 0 0 0 -0 -0 0 0 0 0 0 0 0 0 0 0 0 0 0 0 0 0 0 0 0 0 0 0 0 0 0 0
-0 0 0 -0 0 0 0 0 0 0 0 0 0 0 0 0 0 0 0 0 0 0 0 0 0 0 0 0 0 0 0 0
0 -0 -0 -0 0 0 0 0 0 0 0 0 0 0 0 0 0 0 0 0 0 0 0 0 -0 0 0 0 0 0 0 0
Wind_Speed_500mb
24 26 27 21 20 22 17 2 12 7 2 9 15 4 3 1 5 7 9 13 16 30 36 36 33 33 40 43 48 49 48 49
18 37 12 10 24 21 19 10 8 11 14 7 7 5 1 6 7 10 13 17 25 36 41 38 39 40 43 45 49 50 52 55
32 33 17 7 17 19 17 14 2 3 12 2 10 9 6 6 7 10 15 16 19 34 39 36 39 43 47 51 53 53 55 57
29 15 12 6 11 18 21 13 3 8 14 5 15 8 8 9 10 9 11 13 16 25 35 37 37 40 45 51 54 56 58 61
34 35 24 6 10 23 22 25 15 7 14 1 10 11 14 12 11 8 8 14 20 24 29 37 37 39 41 46 50 54 59 65
33 23 23 17 4 29 16 19 10 8 10 16 11 16 13 11 11 13 15 19 24 24 25 28 25 36 49 37 44 49 51 56
36 32 22 18 27 10 6 24 12 12 15 5 10 15 15 14 15 15 20 22 24 24 24 24 25 28 36 37 42 37 34 34
27 27 24 37 38 37 16 21 18 19 18 11 16 19 19 19 17 15 20 22 22 22 23 21 21 25 30 33 35 31 29 25
33 40 28 35 35 13 19 21 19 10 17 26 23 23 23 21 15 14 16 19 21 20 20 20 21 25 24 23 29 29 31 29
40 44 26 28 18 20 18 25 14 14 13 19 26 28 26 22 15 12 14 16 17 19 20 20 22 21 21 27 25 23 24 20
45 38 33 29 21 23 27 20 13 15 18 24 29 30 27 21 16 10 11 14 15 19 18 21 24 16 26 27 18 19 20 23
38 37 33 21 33 6 24 9 17 21 24 27 32 31 28 23 16 11 11 11 15 17 17 20 27 29 25 22 18 19 19 20
38 37 30 24 30 33 36 17 20 26 31 32 32 32 32 25 19 12 9 11 14 15 18 24 28 26 23 21 19 17 18 19
39 36 33 20 36 27 28 22 27 32 32 31 32 34 31 25 19 12 8 11 12 13 15 21 22 23 21 19 21 17 19 19
37 28 31 31 37 35 25 29 30 35 32 33 33 35 32 27 21 13 8 9 9 12 16 23 19 20 20 17 18 19 21 20
35 29 26 31 38 34 29 36 35 37 34 32 37 39 35 30 22 14 9 9 8 10 16 23 21 18 18 17 17 16 16 20
22 17 26 26 34 39 35 37 40 39 30 31 37 35 35 32 25 17 10 8 6 9 15 17 19 19 17 18 15 20 17 18
29 25 18 26 39 41 38 39 38 35 25 27 32 36 37 34 28 20 12 8 3 5 10 13 16 15 11 11 14 24 22 18
35 24 18 29 46 40 15 22 24 22 22 23 33 39 39 36 30 20 13 10 5 2 5 12 16 20 13 8 14 18 29 30
29 26 26 28 28 30 34 13 19 28 30 24 29 37 40 37 32 23 15 13 9 3 5 9 13 15 19 14 10 13 26 27
Wind_Direction_500mb
247 246 270 339 19 358 357 304 243 239 217 350 53 89 3 186 179 224 257 275 276 284 299 302 293 279 273 270 275 277 279 280
255 279 298 349 330 346 311 173 241 319 297 127 122 125 174 203 223 257 280 286 285 285 293 289 275 275 270 272 276 274 275 276
258 263 304 326 319 334 300 297 289 185 303 292 150 167 184 225 231 266 286 280 293 286 293 287 276 270 263 270 275 278 278 275
268 292 228 276 13 309 290 293 233 280 304 335 141 164 213 225 239 251 273 291 300 299 302 297 288 276 272 273 273 277 279 278
285 295 300 2 26 291 323 305 313 1 301 316 188 189 205 214 234 257 291 309 307 302 294 313 307 300 286 275 275 277 277 277
274 281 283 284 253 278 278 325 334 296 272 339 157 186 205 222 247 291 306 308 305 304 298 295 291 294 295 291 285 285 286 286
272 287 307 308 281 275 229 282 230 268 282 312 177 194 217 228 258 279 301 306 309 298 297 295 294 292 294 309 302 305 303 299
293 310 305 298 301 304 284 252 233 235 243 229 212 215 228 233 264 292 303 303 310 296 297 301 305 296 293 292 284 284 291 275
291 287 293 311 290 294 274 278 307 286 266 204 216 224 233 247 259 293 304 310 301 299 299 301 299 292 290 275 289 282 284 294
268 274 276 277 309 293 282 279 312 285 275 219 223 227 232 239 245 279 297 310 304 299 303 303 298 294 283 286 295 284 297 295
269 255 265 269 275 277 295 303 271 261 244 233 228 229 227 228 230 261 298 299 304 305 306 308 303 298 284 282 284 285 287 277
263 245 258 242 264 222 281 257 247 251 248 237 231 225 220 222 226 248 282 296 301 309 318 311 302 291 292 295 292 294 282 274
255 254 247 232 260 248 258 223 255 243 242 237 228 221 220 221 222 236 275 289 302 322 323 317 310 303 293 298 286 271 278 287
246 216 229 218 261 263 251 242 252 252 238 240 227 221 218 214 213 227 258 279 304 315 328 310 309 304 299 270 282 276 270 267
255 173 228 206 261 291 285 283 269 263 255 237 225 221 214 211 211 217 245 265 299 311 320 314 316 307 310 299 287 287 285 280
261 212 211 252 258 261 272 279 269 246 254 233 222 216 212 208 206 208 232 259 292 320 312 327 330 330 326 323 310 290 283 278
243 247 250 276 277 285 283 272 272 254 248 237 220 213 206 205 202 204 223 250 280 305 313 342 341 355 345 342 346 334 330 304
262 259 268 289 283 290 282 276 268 249 245 228 210 203 199 199 198 200 210 224 247 304 325 352 336 352 6 348 16 44 32 19
260 271 243 271 268 258 257 272 248 239 255 226 205 199 195 195 197 197 200 199 197 263 18 356 12 0 10 356 7 32 45 42
269 275 266 274 284 294 273 264 256 236 208 213 193 195 194 193 193 193 195 183 180 188 64 353 16 357 354 18 1 39 44 35
Wind_Speed_850mb
24 26 27 21 20 22 17 2 12 7 2 9 15 4 3 1 5 7 9 13 16 30 36 36 33 33 40 43 48 49 48 49
18 37 12 10 24 21 19 10 8 11 14 7 7 5 1 6 7 10 13 17 25 36 41 38 39 40 43 45 49 50 52 55
32 33 17 7 17 19 17 14 2 3 12 2 10 9 6 6 7 10 15 16 19 34 39 36 39 43 47 51 53 53 55 57
29 15 12 6 11 18 21 13 3 8 14 5 15 8 8 9 10 9 11 13 16 25 35 37 37 40 45 51 54 56 58 61
34 35 24 6 10 23 22 25 15 7 14 1 10 11 14 12 11 8 8 14 20 24 29 37 37 39 41 46 50 54 59 65
33 23 23 17 4 29 16 19 10 8 10 16 11 16 13 11 11 13 15 19 24 24 25 28 25 36 49 37 44 49 51 56
36 32 22 18 27 10 6 24 12 12 15 5 10 15 15 14 15 15 20 22 24 24 24 24 25 28 36 37 42 37 34 34
27 27 24 37 38 37 16 21 18 19 18 11 16 19 19 19 17 15 20 22 22 22 23 21 21 25 30 33 35 31 29 25
33 40 28 35 35 13 19 21 19 10 17 26 23 23 23 21 15 14 16 19 21 20 20 20 21 25 24 23 29 29 31 29
40 44 26 28 18 20 18 25 14 14 13 19 26 28 26 22 15 12 14 16 17 19 20 20 22 21 21 27 25 23 24 20
45 38 33 29 21 23 27 20 13 15 18 24 29 30 27 21 16 10 11 14 15 19 18 21 24 16 26 27 18 19 20 23
38 37 33 21 33 6 24 9 17 21 24 27 32 31 28 23 16 11 11 11 15 17 17 20 27 29 25 22 18 19 19 20
38 37 30 24 30 33 36 17 20 26 31 32 32 32 32 25 19 12 9 11 14 15 18 24 28 26 23 21 19 17 18 19
39 36 33 20 36 27 28 22 27 32 32 31 32 34 31 25 19 12 8 11 12 13 15 21 22 23 21 19 21 17 19 19
37 28 31 31 37 35 25 29 30 35 32 33 33 35 32 27 21 13 8 9 9 12 16 23 19 20 20 17 18 19 21 20
35 29 26 31 38 34 29 36 35 37 34 32 37 39 35 30 22 14 9 9 8 10 16 23 21 18 18 17 17 16 16 20
22 17 26 26 34 39 35 37 40 39 30 31 37 35 35 32 25 17 10 8 6 9 15 17 19 19 17 18 15 20 17 18
29 25 18 26 39 41 38 39 38 35 25 27 32 36 37 34 28 20 12 8 3 5 10 13 16 15 11 11 14 24 22 18
35 24 18 29 46 40 15 22 24 22 22 23 33 39 39 36 30 20 13 10 5 2 5 12 16 20 13 8 14 18 29 30
29 26 26 28 28 30 34 13 19 28 30 24 29 37 40 37 32 23 15 13 9 3 5 9 13 15 19 14 10 13 26 27
Wind_Direction_850mb
247 246 270 339 19 358 357 304 243 239 217 350 53 89 3 186 179 224 257 275 276 284 299 302 293 279 273 270 275 277 279 280
255 279 298 349 330 346 311 173 241 319 297 127 122 125 174 203 223 257 280 286 285 285 293 289 275 275 270 272 276 274 275 276
258 263 304 326 319 334 300 297 289 185 303 292 150 167 184 225 231 266 286 280 293 286 293 287 276 270 263 270 275 278 278 275
268 292 228 276 13 309 290 293 233 280 304 335 141 164 213 225 239 251 273 291 300 299 302 297 288 276 272 273 273 277 279 278
285 295 300 2 26 291 323 305 313 1 301 316 188 189 205 214 234 257 291 309 307 302 294 313 307 300 286 275 275 277 277 277
274 281 283 284 253 278 278 325 334 296 272 339 157 186 205 222 247 291 306 308 305 304 298 295 291 294 295 291 285 285 286 286
272 287 307 308 281 275 229 282 230 268 282 312 177 194 217 228 258 279 301 306 309 298 297 295 294 292 294 309 302 305 303 299
293 310 305 298 301 304 284 252 233 235 243 229 212 215 228 233 264 292 303 303 310 296 297 301 305 296 293 292 284 284 291 275
291 287 293 311 290 294 274 278 307 286 266 204 216 224 233 247 259 293 304 310 301 299 299 301 299 292 290 275 289 282 284 294
268 274 276 277 309 293 282 279 312 285 275 219 223 227 232 239 245 279 297 310 304 299 303 303 298 294 283 286 295 284 297 295
269 255 265 269 275 277 295 303 271 261 244 233 228 229 227 228 230 261 298 299 304 305 306 308 303 298 284 282 284 285 287 277
263 245 258 242 264 222 281 257 247 251 248 237 231 225 220 222 226 248 282 296 301 309 318 311 302 291 292 295 292 294 282 274
255 254 247 232 260 248 258 223 255 243 242 237 228 221 220 221 222 236 275 289 302 322 323 317 310 303 293 298 286 271 278 287
246 216 229 218 261 263 251 242 252 252 238 240 227 221 218 214 213 227 258 279 304 315 328 310 309 304 299 270 282 276 270 267
255 173 228 206 261 291 285 283 269 263 255 237 225 221 214 211 211 217 245 265 299 311 320 314 316 307 310 299 287 287 285 280
261 212 211 252 258 261 272 279 269 246 254 233 222 216 212 208 206 208 232 259 292 320 312 327 330 330 326 323 310 290 283 278
243 247 250 276 277 285 283 272 272 254 248 237 220 213 206 205 202 204 223 250 280 305 313 342 341 355 345 342 346 334 330 304
262 259 268 289 283 290 282 276 268 249 245 228 210 203 199 199 198 200 210 224 247 304 325 352 336 352 6 348 16 44 32 19
260 271 243 271 268 258 257 272 248 239 255 226 205 199 195 195 197 197 200 199 197 263 18 356 12 0 10 356 7 32 45 42
269 275 266 274 284 294 273 264 256 236 208 213 193 195 194 193 193 193 195 183 180 188 64 353 16 357 354 18 1 39 44 35